[[{"header":{"parameterUnit":"m.s-1","parameterCategory":1,"la1":30.2991,"la2":30.254,"lo1":-89.0895,"lo2":-89.0444,"dy":0.0017,"dx":0.0017,"nx":28,"ny":28,"refTime":"2023-08-31T21:00:00:Z","depth":0,"parameterNumber":2,"parameterNumberName":"U-component_of_WINDS"},"data":[0,0,0,0,0,0,0,0,0,0,0,0,0,0,0,0,0,0,0,0,0,0,0,0,0,0,0,0,0,0,0,0,0,0,0,0,0,0,0,0,0,0,0,0,0,0,0,0,0,0,0,0,0,0,0,0,0,0,-0.699,-0.6991,0,-0.7007,-0.7007,-0.7007,-0.699,-0.6989,-0.6988,-0.6988,-0.7005,-0.7006,-0.7007,0,0,0,0,0,0,0,0,0,0,0,0,0,-0.6943,-0.6944,-0.699,-0.6991,-0.6991,-0.7007,-0.7007,-0.7007,-0.699,-0.6989,-0.6988,-0.6987,-0.7005,-0.7006,-0.7008,0,0,0,0,0,0,0,0,0,0,0,0,0,-0.6962,-0.6944,-0.699,-0.6984,-0.6984,-0.7007,-0.7007,-0.7007,-0.699,-0.6989,-0.6988,-0.6987,-0.7005,-0.7006,-0.7008,-0.7038,0,0,-0.7013,-0.7014,0,0,0,0,0,0,0,0,-0.6961,-0.6964,-0.6985,-0.6984,-0.6984,-0.6995,-0.6997,-0.7018,-0.699,-0.6988,-0.6988,-0.6987,-0.7003,-0.7005,-0.701,-0.7039,-0.704,-0.7013,-0.7014,-0.7015,-0.7015,0,0,0,0,0,0,0,-0.696,-0.6963,-0.6997,-0.6985,-0.6985,-0.698,-0.6982,-0.7001,-0.7001,-0.6988,-0.6987,-0.6989,-0.7002,-0.7008,-0.701,-0.704,-0.7013,-0.7014,-0.7015,-0.7016,-0.7093,-0.7094,0,0,0,0,0,0,-0.6959,-0.6962,-0.6996,-0.6997,-0.697,-0.6982,-0.6984,-0.6993,-0.7001,-0.7001,-0.699,-0.6988,-0.7006,-0.7008,-0.7011,-0.7046,-0.7015,-0.7016,-0.7017,-0.7092,-0.7094,-0.7095,0,0,0,0,0,0,-0.6958,-0.6962,-0.6996,-0.6979,-0.6983,-0.6984,-0.6994,-0.6994,-0.6999,-0.7002,-0.7002,-0.6996,-0.7005,-0.7008,-0.7031,-0.7046,-0.7017,-0.7018,-0.7091,-0.7093,-0.7094,-0.7117,0,0,0,0,0,0,-0.6957,-0.6962,-0.6974,-0.698,-0.6984,-0.7016,-0.6995,-0.6995,-0.7002,-0.7,-0.7007,-0.7008,-0.7005,-0.7029,-0.7033,-0.7048,-0.702,-0.709,-0.7092,-0.7094,-0.7115,-0.7119,-0.7123,0,0,0,0,0,-0.6955,-0.698,-0.6975,-0.6979,-0.6999,-0.7017,-0.702,-0.7015,-0.7004,-0.7015,-0.7016,-0.7008,-0.7044,-0.7031,-0.7036,-0.7051,-0.7089,-0.7091,-0.7094,-0.7113,-0.7118,-0.7123,0,0,0,0,0,0,-0.6977,-0.6981,-0.6975,-0.7002,-0.7009,-0.7014,-0.7029,-0.7021,-0.7032,-0.703,-0.7024,-0.7026,-0.705,-0.7053,-0.7039,-0.7081,-0.7064,-0.7068,-0.7078,-0.7083,-0.7086,-0.7085,-0.7021,0,0,0,0,0,-0.6985,-0.6999,-0.7002,-0.7026,-0.703,-0.7029,-0.7036,-0.7032,-0.7039,-0.7042,-0.7046,-0.7053,-0.7066,-0.7074,-0.7087,-0.7115,-0.7116,-0.7128,-0.7132,-0.7135,-0.7138,-0.7152,-0.7157,-0.7103,-0.7103,-0.7103,0,0,-0.7002,-0.7005,-0.7015,-0.703,-0.7035,-0.705,-0.7031,-0.7048,-0.7058,-0.7045,-0.7066,-0.7069,-0.7076,-0.7102,-0.7113,-0.7105,-0.7153,-0.7138,-0.7141,-0.7142,-0.7155,-0.716,-0.7165,-0.7104,-0.7104,-0.7104,0,0,-0.7039,-0.7044,-0.7064,-0.7069,-0.7076,-0.7075,-0.7079,-0.7085,-0.7086,-0.7107,-0.7097,-0.7109,-0.7132,-0.7137,-0.7143,-0.7181,-0.7173,-0.7185,-0.7206,-0.7219,-0.7223,-0.7227,-0.724,-0.7244,-0.7188,-0.7188,-0.7188,0,-0.7059,-0.708,-0.7075,-0.7091,-0.7098,-0.7086,-0.7105,-0.7111,-0.7122,-0.7127,-0.7117,-0.7144,-0.7149,-0.7175,-0.7184,-0.7189,-0.7194,-0.7184,-0.7223,-0.7227,-0.723,-0.7242,-0.7247,-0.7189,-0.7189,-0.7189,-0.7189,0,-0.7103,-0.7118,-0.7133,-0.7143,-0.7152,-0.717,-0.7167,-0.7176,-0.7171,-0.7171,-0.7191,-0.7196,-0.7208,-0.7214,-0.721,-0.7239,-0.7234,-0.7224,-0.7208,-0.7237,-0.7248,-0.7252,-0.7191,-0.7191,-0.719,-0.719,0,0,-0.7156,-0.7161,-0.7167,-0.7171,-0.7177,-0.7189,-0.7206,-0.7217,-0.7224,-0.7232,-0.7246,-0.7265,-0.7255,-0.7262,-0.7258,-0.727,-0.7298,-0.7258,-0.7258,-0.7265,-0.7329,-0.7335,-0.7341,-0.7292,-0.7293,-0.7294,-0.7328,0,-0.7193,-0.7222,-0.7217,-0.7245,-0.7258,-0.7246,-0.7261,-0.7266,-0.7266,-0.7277,-0.7277,-0.7289,-0.7277,-0.728,-0.7292,-0.7292,-0.731,-0.729,-0.7305,-0.7305,-0.7302,-0.7347,-0.7354,-0.7386,-0.7332,-0.7333,-0.7333,0,-0.724,-0.7248,-0.7277,-0.728,-0.7285,-0.7299,-0.7308,-0.7318,-0.7324,-0.7323,-0.7329,-0.7323,-0.7339,-0.7323,-0.7345,-0.733,-0.7336,-0.7337,-0.7338,-0.7339,-0.7321,-0.7348,-0.7396,-0.74,-0.734,-0.734,-0.7339,0,-0.7274,-0.7292,-0.7312,-0.7315,-0.732,-0.7329,-0.7331,-0.7336,-0.7342,-0.735,-0.7354,-0.7364,-0.737,-0.7377,-0.7374,-0.7362,-0.7396,-0.7379,-0.7395,-0.7395,-0.7402,-0.7402,-0.7451,-0.7407,-0.7407,-0.7407,-0.7407,0,-0.7315,-0.7333,-0.7327,-0.7339,-0.7358,-0.7352,-0.7371,-0.7372,-0.7376,-0.7387,-0.7378,-0.7389,-0.7384,-0.7394,-0.7391,-0.7409,-0.7412,-0.7411,-0.741,-0.7412,-0.7412,-0.7415,-0.7413,-0.7408,-0.7408,-0.7408,-0.7408,0,-0.7356,-0.7353,-0.7373,-0.7375,-0.7375,-0.739,-0.7391,-0.7402,-0.74,-0.7415,-0.7418,-0.7416,-0.7428,-0.7425,-0.7438,-0.7436,-0.7458,-0.7455,-0.7456,-0.7455,-0.747,-0.7469,-0.7523,-0.753,-0.7482,-0.7483,-0.7483,0,-0.7382,-0.7396,-0.7398,-0.7405,-0.7408,-0.7419,-0.7425,-0.7419,-0.7426,-0.7432,-0.7442,-0.7453,-0.7461,-0.748,-0.748,-0.7489,-0.7486,-0.7504,-0.7487,-0.7488,-0.7485,-0.7484,-0.7485,-0.7507,-0.7508,-0.7508,-0.7509,0,-0.7429,-0.7426,-0.7435,-0.7444,-0.7451,-0.7457,-0.7463,-0.7469,-0.7463,-0.7471,-0.7483,-0.7489,-0.7502,-0.7512,-0.752,-0.7523,-0.7515,-0.7514,-0.7518,-0.752,-0.7519,-0.7519,-0.7465,-0.7513,-0.7512,-0.7512,-0.7512,-0.7512,-0.7463,-0.7474,-0.7477,-0.7487,-0.749,-0.7495,-0.7505,-0.7504,-0.7513,-0.7523,-0.7518,-0.7531,-0.7535,-0.7545,-0.7548,-0.7558,-0.7551,-0.7557,-0.7559,-0.756,-0.7562,-0.7518,-0.756,-0.756,-0.756,-0.756,-0.7559,0,-0.7508,-0.7509,-0.7519,-0.7526,-0.7534,-0.7525,-0.753,-0.7537,-0.7548,-0.7552,-0.756,-0.7572,-0.7582,-0.7582,-0.7591,-0.7599,-0.7595,-0.7601,-0.76,-0.7601,-0.7568,-0.7563,-0.7604,-0.7604,-0.7604,-0.7604,-0.7604,-0.7604,-0.7533,-0.755,-0.7547,-0.7566,-0.7567,-0.7579,-0.7582,-0.7586,-0.7589,-0.7603,-0.7611,-0.761,-0.7613,-0.7621,-0.7629,-0.7629,-0.7633,-0.764,-0.7638,-0.7607,-0.7603,-0.7599,-0.7594,-0.7641,-0.7641,-0.767,-0.767,-0.767]},{"header":{"parameterUnit":"m.s-1","parameterCategory":1,"la1":30.2991,"la2":30.254,"lo1":-89.0895,"lo2":-89.0444,"dy":0.0017,"dx":0.0017,"nx":28,"ny":28,"refTime":"2023-08-31T21:00:00:Z","depth":0,"parameterNumber":3,"parameterNumberName":"V-component_of_WINDS"},"data":[0,0,0,0,0,0,0,0,0,0,0,0,0,0,0,0,0,0,0,0,0,0,0,0,0,0,0,0,0,0,0,0,0,0,0,0,0,0,0,0,0,0,0,0,0,0,0,0,0,0,0,0,0,0,0,0,0,0,2.3976,2.3978,0,2.4102,2.4104,2.4105,2.4143,2.4143,2.4142,2.4142,2.4265,2.4268,2.4272,0,0,0,0,0,0,0,0,0,0,0,0,0,2.376,2.3764,2.3976,2.3978,2.3979,2.4102,2.4104,2.4106,2.4143,2.4143,2.4142,2.4141,2.4263,2.4268,2.4273,0,0,0,0,0,0,0,0,0,0,0,0,0,2.3866,2.3765,2.3976,2.4013,2.4018,2.4102,2.4104,2.4106,2.4144,2.4143,2.4142,2.4141,2.4262,2.4267,2.4273,2.4327,0,0,2.4291,2.4293,0,0,0,0,0,0,0,0,2.386,2.3874,2.4006,2.4011,2.4016,2.4106,2.4073,2.418,2.4144,2.4096,2.4142,2.414,2.4212,2.4222,2.4248,2.4333,2.4338,2.4291,2.4295,2.4297,2.4299,0,0,0,0,0,0,0,2.3853,2.3869,2.4026,2.4008,2.4014,2.4021,2.4035,2.4093,2.4157,2.41,2.4103,2.4118,2.4215,2.4242,2.4251,2.434,2.4291,2.4296,2.43,2.4302,2.4473,2.4474,0,0,0,0,0,0,2.384,2.3863,2.4022,2.403,2.3935,2.4025,2.4041,2.4078,2.4157,2.4168,2.4118,2.4119,2.4233,2.4244,2.4255,2.4323,2.4297,2.4303,2.4306,2.4472,2.4473,2.4474,0,0,0,0,0,0,2.3835,2.3854,2.4017,2.3947,2.3968,2.403,2.4071,2.4081,2.4109,2.4171,2.4182,2.4135,2.4232,2.4247,2.4309,2.4327,2.4305,2.4311,2.4471,2.4472,2.4474,2.4458,0,0,0,0,0,0,2.3829,2.3852,2.3876,2.3947,2.3972,2.4071,2.4073,2.4084,2.4119,2.4121,2.4189,2.42,2.4233,2.43,2.4315,2.4335,2.4315,2.4469,2.4471,2.4473,2.4458,2.4459,2.4461,0,0,0,0,0,2.3821,2.3866,2.3877,2.3896,2.4003,2.4072,2.4086,2.4125,2.4121,2.4143,2.4183,2.4198,2.4323,2.4306,2.4323,2.4345,2.4468,2.4471,2.4473,2.4457,2.4459,2.4461,0,0,0,0,0,0,2.3793,2.3876,2.3889,2.3959,2.4008,2.4079,2.4109,2.4126,2.4176,2.4176,2.422,2.4235,2.4293,2.4325,2.4305,2.44,2.4396,2.4402,2.4378,2.438,2.4382,2.4373,2.432,0,0,0,0,0,2.3795,2.3847,2.3915,2.397,2.3994,2.4047,2.4078,2.4104,2.4156,2.4177,2.4221,2.4269,2.4319,2.4351,2.4401,2.4462,2.4476,2.4485,2.4486,2.4487,2.4492,2.4524,2.4529,2.4482,2.4482,2.4482,0,0,2.38,2.3851,2.3881,2.3965,2.4007,2.4056,2.4064,2.4117,2.4154,2.4184,2.4246,2.4279,2.4335,2.4396,2.4426,2.4425,2.4508,2.449,2.4491,2.4495,2.4527,2.4531,2.4535,2.4484,2.4484,2.4483,0,0,2.3834,2.3879,2.3929,2.397,2.4032,2.4067,2.4078,2.4145,2.4169,2.4232,2.4255,2.4297,2.4383,2.4422,2.4452,2.4497,2.4511,2.4511,2.452,2.4551,2.4554,2.4558,2.4572,2.4577,2.4515,2.4515,2.4515,0,2.3832,2.391,2.3951,2.4003,2.4038,2.4068,2.4117,2.4154,2.4228,2.4251,2.4249,2.4356,2.4396,2.4465,2.4476,2.45,2.4513,2.4505,2.4551,2.4555,2.4559,2.4573,2.4578,2.4515,2.4515,2.4515,2.4515,0,2.3903,2.3957,2.3988,2.4062,2.41,2.4149,2.4195,2.4228,2.4249,2.4282,2.4343,2.4392,2.4451,2.4469,2.4489,2.454,2.4538,2.4543,2.454,2.4562,2.4576,2.4582,2.4514,2.4514,2.4515,2.4515,0,0,2.3927,2.4019,2.403,2.4063,2.4132,2.4173,2.4222,2.4281,2.4308,2.4357,2.4398,2.4468,2.4472,2.4507,2.4531,2.4558,2.4588,2.456,2.4562,2.4563,2.4645,2.4641,2.4647,2.4598,2.4599,2.46,2.464,0,2.3969,2.4062,2.4098,2.4171,2.422,2.4247,2.4289,2.4334,2.4366,2.4409,2.4442,2.4491,2.4494,2.4515,2.4543,2.4579,2.4605,2.4576,2.4634,2.4636,2.462,2.4655,2.4652,2.4688,2.4646,2.4647,2.4648,0,2.4033,2.4084,2.4162,2.4224,2.4245,2.4283,2.4338,2.438,2.443,2.4451,2.4488,2.451,2.4559,2.4551,2.4618,2.4598,2.4623,2.4643,2.4645,2.4653,2.4644,2.4663,2.47,2.4706,2.4657,2.4656,2.4656,0,2.4041,2.4129,2.4187,2.4213,2.4287,2.4312,2.4343,2.4393,2.4425,2.4472,2.4493,2.4544,2.4572,2.461,2.4644,2.4635,2.4707,2.4702,2.4723,2.4722,2.4738,2.4737,2.478,2.4754,2.4754,2.4753,2.4753,0,2.4086,2.4133,2.4191,2.4227,2.4279,2.4318,2.4367,2.44,2.4443,2.4483,2.4508,2.4545,2.4588,2.4629,2.4655,2.4705,2.4718,2.4734,2.4741,2.4732,2.473,2.475,2.4749,2.4755,2.4755,2.4754,2.4754,0,2.4105,2.4146,2.4211,2.4274,2.4291,2.4326,2.4379,2.4413,2.4444,2.4494,2.4508,2.4556,2.4605,2.4643,2.4706,2.4724,2.4777,2.4784,2.4761,2.4764,2.4783,2.4781,2.4841,2.485,2.4817,2.4817,2.4817,0,2.4131,2.4168,2.4235,2.4264,2.4296,2.4343,2.4375,2.4413,2.4446,2.4504,2.453,2.4582,2.4625,2.4702,2.4741,2.4789,2.4797,2.4814,2.4804,2.4794,2.4797,2.4794,2.4797,2.4816,2.4816,2.4816,2.4816,0,2.4173,2.4191,2.4239,2.4292,2.4331,2.4375,2.4418,2.444,2.4485,2.452,2.4572,2.4605,2.4669,2.4719,2.477,2.4799,2.4815,2.4819,2.4826,2.4819,2.4804,2.4812,2.4765,2.4818,2.4818,2.4818,2.4818,2.4818,2.4197,2.423,2.4282,2.4333,2.4369,2.4409,2.4444,2.4478,2.4523,2.458,2.4598,2.465,2.4696,2.4767,2.4796,2.4835,2.4836,2.4846,2.4849,2.4851,2.485,2.4797,2.4845,2.4845,2.4845,2.4845,2.4845,0,2.424,2.4274,2.4321,2.4381,2.442,2.4432,2.448,2.4511,2.4558,2.46,2.4641,2.4698,2.4746,2.4787,2.4836,2.4859,2.4867,2.4871,2.487,2.4876,2.4848,2.4837,2.4863,2.4863,2.4863,2.4863,2.4863,2.4863,2.4268,2.4324,2.4347,2.442,2.4452,2.4506,2.4532,2.4567,2.4601,2.4664,2.4704,2.4731,2.4772,2.4823,2.4866,2.4877,2.4893,2.4895,2.4907,2.488,2.4878,2.4876,2.4866,2.4898,2.4898,2.4932,2.4932,2.4932]}]]